Tracking 27405 objects as of 2-Jun-2023
HD Live streaming from Space Station
objects crossing your sky now

COSMOS 1349

Track COSMOS 1349 now!
10-day predictions
COSMOS 1349 is classified as:


NORAD ID: 13127
Int'l Code: 1982-030A
Perigee: 971.1 km
Apogee: 1,014.5 km
Inclination: 82.9 °
Period: 104.8 minutes
Semi major axis: 7363 km
RCS: 2.1672 m2 (large)
Launch date: April 8, 1982
Source: Commonwealth of Independent States (former USSR) (CIS)
Launch site: PLESETSK MISSILE AND SPACE COMPLEX (PKMTR)
Your satellite tracking list
Your tracking list is empty




NASA's NSSDC Master Catalog

Two Line Element Set (TLE):
1 13127U 82030A   23152.39672806  .00000048  00000-0  34905-4 0  9998
2 13127  82.9297 265.8685 0029453 251.0641 170.1799 13.73872986 62641
Source of the keplerian elements: AFSPC